Location: Moudon
(46.6695°N, 6.8013°E)
Time: 19:14:43
(UTC+00:00)

Daily predictions for brighter satellites

Satellite Brightness Start Highest point End
(mag) Time Altitude Azimuth Time Altitude Azimuth Time Altitude Azimuth
Cosmos 2333 Rocket 2.8 17:47:54 10° S 17:53:04 37° ESE 17:58:17 10° NE
Cosmos 1939 Rocket 4.3 17:50:26 10° S 17:54:06 42° W 17:57:49 10° NNW
Cosmos 1295 Rocket 4.5 17:48:43 10° S 17:54:54 71° E 18:01:03 10° NNE
Meteor 2-4 Rocket 3.9 17:52:42 10° N 17:58:35 68° ENE 18:04:30 10° SSE
Cosmos 2322 Rocket 3.0 17:53:39 10° SW 17:59:09 56° WNW 18:04:42 10° NNE
Helios 1A Rocket 3.5 17:56:12 10° SE 17:59:52 34° ENE 18:03:32 10° N
Lacrosse 4 Rocket 2.0 17:56:12 10° S 18:00:18 39° ESE 18:04:28 10° NE
CZ-2D R/B 4.1 17:57:08 10° S 18:00:53 57° W 18:04:40 10° NNW
Nadezhda 3 Rocket 4.2 17:54:52 10° N 18:01:17 85° W 18:07:39 10° S
GP-B 3.6 17:57:33 10° SSE 18:01:39 39° E 18:05:48 10° NNE
ARGOS 3.3 17:58:44 10° SE 18:04:00 55° ENE 18:09:18 10° N
Cosmos 1869 Rocket 4.2 18:04:12 10° SSE 18:08:06 32° E 18:12:01 10° NNE
CZ-4 R/B 1.3 18:05:30 10° SSE 18:09:22 88° ENE 18:13:21 10° NNW
Cosmos 2219 Rocket 2.5 18:04:16 10° S 18:09:31 43° ESE 18:14:49 10° NE
CZ-4B R/B 2.0 18:07:35 10° N 18:10:36 55° WNW 18:13:39 10° SSW
Cosmos 2154 Rocket 4.3 18:06:02 10° SSW 18:12:14 75° W 18:18:28 10° N
FALCON 9 DEB 3.3 18:11:05 10° NW 18:14:09 48° NNE 18:16:47 13° E
ERS-2 2.3 18:11:38 10° NNE 18:15:11 46° E 18:18:42 10° S
CZ-2C R/B 3.0 18:10:24 10° NNE 18:15:33 43° E 18:20:34 10° SSE
Cosmos 1238 Rocket 4.0 18:13:24 10° SE 18:16:16 19° E 18:18:51 10° NE
Cosmos 1689 Rocket 2.1 18:13:56 10° NNE 18:16:45 49° E 18:19:34 10° S
Cosmos 1378 4.1 18:15:37 10° NNE 18:18:49 26° ENE 18:21:59 10° SE
SL-08 RB Rocket 3.9 18:14:32 10° SE 18:18:55 50° ENE 18:23:22 10° N
USA 305 3.8 18:15:15 10° NW 18:19:14 36° NNE 18:22:40 13° E
H-2A R/B 4.4 18:17:34 10° N 18:21:00 26° WNW 18:24:25 10° WSW
NOSS 3-2 (A) 4.0 18:17:11 10° S 18:22:02 32° ESE 18:27:27 10° NE
CREW DRAGON DEMO-1 DEB 3.3 18:19:32 10° SW 18:22:10 38° SE 18:23:59 17° E
HJ-1C 3.2 18:20:12 10° SSE 18:23:29 71° ENE 18:26:47 10° N
FALCON 9 DEB 3.4 18:20:31 10° NW 18:23:38 49° NNE 18:25:51 17° E
COSMOS 2428 2.9 18:18:49 10° S 18:24:14 48° ESE 18:29:41 10° NE
Cosmos 1733 Rocket 4.5 18:22:45 10° SE 18:25:35 17° E 18:28:25 10° NE
SL-16 R/B 4.1 18:22:46 10° WSW 18:27:43 30° NW 18:32:43 10° N
USA 307 3.7 18:29:01 10° NW 18:33:03 39° NNE 18:35:52 17° ENE
SL-8 Rocket 3.9 18:27:13 10° S 18:33:23 68° E 18:39:32 10° NNE
CENTAUR R/B 3.3 18:29:05 10° SSE 18:33:50 27° ESE 18:39:14 10° NE
USA 306 3.7 18:30:16 10° NW 18:34:21 40° NNE 18:37:06 18° E
ATLAS CENTAUR R/B 3.2 18:32:34 10° W 18:35:40 25° NW 18:38:50 10° NNE
Cosmos 1066 Rocket 4.4 18:31:37 10° N 18:37:18 56° ENE 18:43:01 10° SSE
Cosmos 1743 3.8 18:36:56 10° SE 18:40:04 23° E 18:43:12 10° NE
Cosmos 1666 2.8 18:38:04 10° SSW 18:41:46 73° W 18:45:32 10° N
Cosmos 1703 Rocket 4.2 18:39:18 10° NNW 18:43:36 58° W 18:47:52 10° S
USA 308 3.6 18:39:50 10° NW 18:43:56 42° NNE 18:46:15 22° ENE
CSL-04 Rocket 3.7 18:39:25 10° SSE 18:44:58 88° W 18:50:29 10° NNW
Cosmos 2322 3.8 18:39:24 10° SSW 18:45:08 82° WNW 18:50:54 10° NNE
Cosmos 1844 Rocket 4.3 18:42:35 10° NW 18:47:35 35° WSW 18:52:34 10° S
Meteor 1-23 Rocket 4.4 18:42:14 10° N 18:47:43 52° ENE 18:53:13 10° SSE
Okean-O 3.8 18:43:58 10° S 18:48:13 46° W 18:52:31 10° NNW
BREEZE-M DEB (TANK) 3.1 18:47:19 10° SW 18:49:33 40° SSE 18:50:06 34° ESE
Cosmos 2366 rocket 4.0 18:45:19 10° S 18:51:37 76° E 18:58:00 10° NNE
ASTEX 1 3.6 18:47:12 10° NNE 18:51:53 44° E 18:56:32 10° SSE
Cosmos 1777 Rocket 4.5 18:47:06 10° NNW 18:52:16 63° WSW 18:57:24 10° S
H-2A R/B 3.4 18:47:08 10° S 18:52:19 44° W 18:57:30 10° NNW
CSL-04 Debris 4.4 18:47:10 10° S 18:52:36 72° WSW 18:58:06 10° NNW
SJ-6B 3.1 18:52:44 21° SE 18:55:08 46° ENE 18:58:59 10° N
Ariane Rocket 3.3 18:55:34 20° SE 18:58:44 45° ENE 19:03:34 10° N
Cosmos 2221 Rocket 3.7 18:54:48 10° N 18:59:09 53° ENE 19:02:10 19° SSE
USA 186 1.1 18:59:36 61° NE 18:59:36 61° NE 19:02:03 10° N
Cosmos 1763 Rocket 4.3 18:57:13 10° SSE 19:01:44 29° E 19:06:16 10° NE
OBJECT-B 1.2 19:02:09 41° ENE 19:02:09 41° ENE 19:05:09 10° N
NOSS 3-2 (C) 3.8 18:58:37 10° S 19:03:41 37° ESE 19:08:11 15° NE
Meteor 1-11 Rocket 3.7 18:59:56 10° SSW 19:05:36 85° W 19:11:13 10° N
Cosmos 1378 Rocket 4.4 19:05:33 10° N 19:09:21 31° ENE 19:09:21 31° ENE
Cosmos 2360 Rocket 4.0 19:04:52 10° WSW 19:09:50 31° NW 19:14:51 10° NNE
Cosmos 468 Rocket 4.4 19:08:29 10° S 19:13:21 38° ESE 19:18:13 10° NE
FALCON 9 DEB 2.9 19:10:18 10° WNW 19:13:28 71° SSW 19:13:45 65° S
Cosmos 1943 Rocket 3.7 19:10:34 10° N 19:14:37 20° NE 19:15:25 19° NE
Cosmos 1821 Rocket 4.0 19:09:55 10° SSE 19:15:53 52° E 19:21:49 10° NNE
Cosmos 2237 Rocket 2.4 19:11:12 10° S 19:16:38 48° ESE 19:22:05 10° NE
SJ 16-02 1.3 19:12:21 10° NNW 19:16:48 85° WSW 19:19:19 25° SSE
Cosmos 1727 Rocket 3.9 19:10:56 10° N 19:17:09 87° E 19:23:23 10° S
Cosmos 1544 2.9 19:14:07 10° S 19:17:44 69° E 19:21:24 10° NNE
DMSP B5D2-2 4.0 19:12:44 10° NNE 19:17:59 88° WNW 19:23:11 10° SSW
Cosmos 2278 Rocket 2.1 19:13:20 10° NNW 19:19:02 81° ENE 19:22:11 28° SSE
MOS 1 4.2 19:15:42 21° SSE 19:19:34 68° ENE 19:25:13 10° N
Cosmos 1536 3.4 19:16:13 10° SSW 19:20:09 59° W 19:24:07 10° N
Okean 3 4.4 19:16:49 10° NNW 19:20:57 48° W 19:25:04 10° SSW
FALCON 9 DEB 3.3 19:18:12 10° WNW 19:21:19 53° SW 19:21:22 53° SSW
USA 81 4.0 19:16:33 10° SSE 19:21:40 56° E 19:26:50 10° NNE
SL-4 R/B 3.4 19:19:02 10° W 19:21:51 23° SW 19:22:57 20° SSW
SeaSat 1 2.5 19:19:46 10° NNE 19:24:44 83° WNW 19:29:40 10° SSW
SPOT 3 Rocket 4.0 19:24:25 39° E 19:24:53 40° ENE 19:29:44 10° N
Abrixas rocket 4.0 19:25:32 10° W 19:26:46 19° WSW 19:26:46 19° WSW
MetOp-A 4.4 19:24:11 10° S 19:29:30 68° WSW 19:34:53 10° NNW
Cosmos 1934 Rocket 4.4 19:30:06 37° E 19:30:06 37° E 19:35:25 10° NNE
Resurs 01 Rocket 2.4 19:31:41 35° NE 19:31:41 35° NE 19:34:59 10° N
SME Rocket 3.8 19:25:15 10° NNE 19:32:37 85° ESE 19:37:27 10° SSW
Meteor 2-20 Rocket 4.3 19:27:08 10° N 19:33:17 79° E 19:37:10 24° SSE
USA 234 3.3 19:33:09 35° E 19:35:42 53° SE 19:42:03 10° SSW
Gbstr 26 Del rocket 3.4 19:32:17 10° WNW 19:37:05 83° NNE 19:38:19 55° ESE
Cosmos 2333 Rocket 3.5 19:31:57 10° WSW 19:37:18 40° NW 19:42:42 10° NNE
Lacrosse 4 Rocket 3.5 19:35:11 10° WSW 19:39:05 29° NW 19:43:03 10° NNE
Cosmos 1937 Rocket 3.6 19:34:43 10° NNW 19:39:46 52° ENE 19:39:49 52° ENE
Cosmos 2123 Rocket 4.1 19:34:15 10° N 19:40:19 50° ENE 19:41:01 48° E
USA 238 DEB 3.5 19:36:53 10° SW 19:43:28 88° SE 19:50:23 10° NE
USA 238 3.5 19:37:00 10° SW 19:43:34 87° SE 19:50:30 10° NE
Resurs 1-3 3.4 19:45:27 83° SSE 19:45:37 88° E 19:50:02 10° NNW
DELTA 2 R/B (1) 4.1 19:41:15 10° WSW 19:46:25 41° S 19:46:36 40° S
IRS-1A Rocket 4.4 19:46:16 24° S 19:49:45 69° WSW 19:55:18 10° NNW
Cosmos 2219 Rocket 3.8 19:48:31 10° WSW 19:53:35 34° NW 19:58:42 10° NNE
CZ-2C R/B 4.5 19:50:59 10° N 19:55:40 30° WNW 20:00:16 10° WSW
Terra 4.3 20:00:53 11° NNE 20:00:53 11° NNE 20:01:07 10° NNE
USA 305 3.4 19:55:14 10° WNW 19:58:47 59° WNW 19:58:47 59° WNW
Cosmos 1980 3.8 19:55:42 10° SSW 20:01:21 76° WNW 20:07:02 10° NNE
Cosmos 1733 Rocket 3.9 19:58:46 10° SSW 20:02:57 48° WNW 20:07:13 10° N
COSMOS 2428 4.4 20:03:38 10° WSW 20:08:42 32° NW 20:13:49 10° NNE
Meteor 2-9 Rocket 4.5 20:10:29 53° NNE 20:10:29 53° NNE 20:14:32 10° NNE
NOSS 3-2 (A) 4.0 20:06:51 10° WSW 20:12:28 55° NW 20:18:59 10° NE
USA 307 4.0 20:09:03 10° WNW 20:12:00 42° WNW 20:12:00 42° WNW
USA 306 4.1 20:10:18 10° WNW 20:13:13 40° WNW 20:13:13 40° WNW
Cosmos 1898 Rocket 3.9 20:14:11 10° NNW 20:19:17 56° WSW 20:19:30 55° WSW
Cosmos 2369 Rocket 3.6 20:14:33 10° N 20:18:00 26° NNE 20:18:00 26° NNE
CENTAUR R/B 2.8 20:17:49 10° SW 20:23:46 67° NW 20:30:57 10° NE
OBJECT-B 4.2 20:35:13 11° WNW 20:35:13 11° WNW 20:35:42 10° WNW
Cosmos 2297 4.4 20:40:21 10° NNW 20:44:37 51° NW 20:44:37 51° NW
NOSS 3-2 (C) 4.2 20:48:46 10° WSW 20:54:21 49° NW 20:55:56 41° N
Cosmos 1943 Rocket 3.3 20:53:29 10° NNW 20:56:58 39° NNW 20:56:58 39° NNW
Cosmos 2237 Rocket 3.8 20:55:48 10° WSW 21:00:54 32° NW 21:06:01 10° NNE
Resurs 01 Rocket 4.2 21:09:14 18° WNW 21:09:14 18° WNW 21:11:01 10° NW
USA 234 4.0 21:20:31 47° W 21:20:31 47° W 21:25:13 10° WSW
CENTAUR R/B 4.5 22:10:27 10° WNW 22:15:55 27° NNW 22:22:10 10° NE
